Torna al catalogo

FENGYUN 1C DEB

AttivoPO
NORAD 30113·DEBRIS·🇨🇳 China

Lanciato May 10, 1999 da Taiyuan Satellite Launch Center

Loading…

Prossimi Passaggi (prossime 24 ore)

TLE

AggiornatoSource: Space-Track

Epoca: Sep 14, 2026, 10:50 UTC

1 30113U 99025RS  26257.45142894  .00003359  00000-0  90400-3 0  9998
2 30113  99.0222 132.9852 0036332 261.8965 274.4705 14.48339360 18940

Traccia FENGYUN 1C DEB in tempo reale con AllMySat

Download on the App Store